DW0774 Weather Reports


Display with metric or nautical units.
time (UTC)temp
F
wind
direction
speed
MPH
gust
MPH
rain 1hr
in
rain 24hr
in
rain mn
in
humidity
%
barometer
mb
20260504214510 48 5 10.0 24.0 0.00 0.06 0.06 58 1012.9
20260504213016 51 31 4.0 9.0 0.00 0.06 0.06 59 1012.9
20260504211512 49 5 1.0 9.0 0.00 0.06 0.06 57 1013.1
20260504210016 48 31 8.0 13.0 0.01 0.06 0.06 74 1013.4
20260504204525 46 321 9.0 18.0 0.03 0.06 0.06 70 1013.8
20260504203012 46 342 4.0 8.0 0.04 0.06 0.06 76 1013.7
20260504201503 43 340 5.0 13.0 0.05 0.06 0.06 79 1014.0
20260504200003 42 342 8.0 17.0 0.05 0.05 0.05 76 1014.1
20260504194519 42 284 8.0 16.0 0.03 0.03 0.03 76 1014.4
20260504193003 42 360 11.0 23.0 0.02 0.02 0.02 71 1014.3
20260504191508 46 303 14.0 26.0 0.01 0.01 0.01 56 1014.3
20260504190008 48 29 9.0 14.0 0.00 0.00 0.00 57 1014.2
20260504184504 46 17 12.0 18.0 0.00 0.00 0.00 63 1014.2
20260504183002 49 342 19.0 31.0 0.00 0.00 0.00 47 1014.6
20260504181518 54 329 9.0 18.0 0.00 0.00 0.00 37 1014.3
20260504180007 54 280 3.0 13.0 0.00 0.00 0.00 38 1014.4
20260504174512 54 202 3.0 21.0 0.00 0.00 0.00 38 1014.4
20260504173008 54 269 7.0 16.0 0.00 0.00 0.00 38 1014.6
20260504171534 53 201 8.0 19.0 0.00 0.00 0.00 40 1014.5
20260504081509 44 217 2.0 7.0 0.00 0.00 0.00 29 1015.5
20260504050005 45 229 2.0 5.0 0.00 0.00 0.00 34 1017.0
20260504044506 46 245 0.0 3.0 0.00 0.00 0.00 33 1017.1
20260504043005 46 260 0.0 6.0 0.00 0.00 0.00 33 1017.3
20260504041512 46 304 1.0 4.0 0.00 0.00 0.00 35 1017.3
20260504040002 46 53 0.0 3.0 0.00 0.00 0.00 37 1017.4
20260504034504 46 11 0.0 0.0 0.00 0.00 0.00 36 1017.5
20260504033010 47 285 2.0 4.0 0.00 0.00 0.00 33 1017.5
20260504031504 47 183 0.0 5.0 0.00 0.00 0.00 36 1017.5
20260504030003 48 166 2.0 5.0 0.00 0.00 0.00 36 1017.4
20260504024516 48 159 3.0 5.0 0.00 0.00 0.00 36 1017.3
20260504023003 48 164 4.0 6.0 0.00 0.00 0.00 36 1017.3
20260504021514 49 154 3.0 7.0 0.00 0.00 0.00 36 1017.2
20260504020007 50 178 5.0 8.0 0.00 0.00 0.00 35 1017.1
20260504014506 50 259 0.0 3.0 0.00 0.00 0.00 34 1017.0
20260504013005 51 217 4.0 9.0 0.00 0.00 0.00 33 1017.0
20260504011508 52 269 3.0 15.0 0.00 0.00 0.00 32 1017.1
20260504010009 53 233 6.0 18.0 0.00 0.00 0.00 33 1017.2
20260504004514 54 294 7.0 15.0 0.00 0.00 0.00 31 1017.3
20260504003006 54 182 6.0 17.0 0.00 0.00 0.00 32 1017.3
20260504001506 55 207 5.0 17.0 0.00 0.00 0.00 30 1017.5
20260504000020 56 217 5.0 14.0 0.00 0.00 0.00 30 1017.4
20260503234508 57 169 4.0 10.0 0.00 0.00 0.00 28 1017.2
20260503233017 55 167 2.0 9.0 0.00 0.00 0.00 27 1017.4
20260503231503 57 350 5.0 13.0 0.00 0.00 0.00 26 1017.4
20260503230002 57 308 5.0 19.0 0.00 0.00 0.00 26 1017.4
20260503224506 57 204 8.0 16.0 0.00 0.00 0.00 28 1017.9
20260503223004 57 202 7.0 19.0 0.00 0.00 0.00 26 1017.5
20260503221502 57 186 10.0 21.0 0.00 0.00 0.00 25 1017.6
20260503220003 59 198 4.0 14.0 0.00 0.00 0.00 22 1017.5